Regional Weather Roundup
Issued by NWS Charleston, SC

Current Version | Previous Version | Text Only | Print | Product List | Glossary Off
Versions: 1 2 3 4 5 6 7 8 9 10 11 12 13 14 15 16 17 18 19 20 21 22 23 24 25 26 27 28 29 30 31 32 33 34 35 36 37 38 39 40 41 42 43 44 45 46 47 48 49 50

000
ASUS42 KCHS 021812
RWRCHS

REGIONAL WEATHER ROUNDUP
NATIONAL WEATHER SERVICE CHARLESTON SC
200 PM EDT THU JUL 02 2015

NOTE: "FAIR" INDICATES FEW OR NO CLOUDS BELOW 12,000 FEET WITH NO
SIGNIFICANT WEATHER AND/OR OBSTRUCTIONS TO VISIBILITY.

NOT ALL STATIONS ARE QUALITY CONTROLLED BY THE NATIONAL
WEATHER SERVICE. USE DATA WITH CAUTION...ESPECIALLY
DEWPOINT OBSERVATIONS.

SCZ027-030-031-034>040-042>050-021900-
...SOUTHEAST SOUTH CAROLINA...

CITY           SKY/WX    TMP DP  RH WIND       PRES   REMARKS
N CHARLESTON   PTSUNNY   91  69  48 W9G23     30.00F HX  96
6HR MIN TEMP:  74; 6HR MAX TEMP:  91;

WATERFRONT PAR   N/A     79  73  82 S9        29.99S
MOUNT PLEASANT LGT RAIN  84  70  61 S15G22    30.02R
JOHNS ISLAND   MOCLDY    81  75  83 S6        30.02R THUNDER
PINOPOLIS      NOT AVBL
MONCKS CORNER  FAIR      90  66  45 SW8       29.99F HX  92
SUMMERVILLE    FAIR      90  72  55 SW8       30.00F HX  96
BEAUFORT MCAS  PTSUNNY   91  73  55 SW12G21   30.00F HX  99
6HR MIN TEMP:  75; 6HR MAX TEMP:  91;

BEAUFORT ARPT  FAIR      90  72  55 SW7       30.00F HX  96
HILTON HEAD IS MOSUNNY   81  79  94 SE3       30.03F
WALTERBORO     PTCLDY    88  66  48 W7        30.00F HX  90
ALLENDALE      FAIR      90  70  51 VRB5      29.99F HX  95

...SOUTHERN MIDLANDS AND PEE DEE...

CITY           SKY/WX    TMP DP  RH WIND       PRES   REMARKS
GEORGETOWN     NOT AVBL
KINGSTREE      NOT AVBL
ORANGEBURG     MOSUNNY   89  66  46 SW13G21   29.99F HX  91
6HR MIN TEMP:  72; 6HR MAX TEMP:  89;

BARNWELL       MOCLDY    90  72  55 SW10G17   29.99F HX  96
AIKEN          NOT AVBL
MANNING        FAIR      88  63  42 SW8       29.97F
COLUMBIA       MOSUNNY   90  67  46 SW12G17   29.94F HX  93
6HR MIN TEMP:  73; 6HR MAX TEMP:  90; 6HR PCP: TRACE;

SUMTER         MOSUNNY   89  69  51 SW13G20   29.95F HX  93
6HR MIN TEMP:  73; 6HR MAX TEMP:  89;

FLORENCE       MOSUNNY   89  69  51 SW15G22   29.95F HX  93
6HR MIN TEMP:  75; 6HR MAX TEMP:  90;

MYRTLE BEACH   PTSUNNY   93  66  40 SW17      29.99F HX  96
N MYRTLE BEACH MOSUNNY   91  68  46 W12       29.97F HX  95
6HR MIN TEMP:  78; 6HR MAX TEMP:  91;


$$

GAZ063-065-086>088-099>101-113>116-118-119-134>141-150-021900-
...SOUTHEAST GEORGIA...

CITY           SKY/WX    TMP DP  RH WIND       PRES   REMARKS
SAVANNAH ARPT  PTSUNNY   90  69  50 SW12      30.01F HX  94
6HR MIN TEMP:  76; 6HR MAX TEMP:  91;

HUNTER AAF     MOSUNNY   91  73  56 W14       29.99F HX  99
6HR MIN TEMP:  78; 6HR MAX TEMP:  93;

FORT STEWART   PTSUNNY   89  71  56 SW10      30.00F HX  95
6HR MIN TEMP:  78; 6HR MAX TEMP:  89;

STATESBORO     NOT AVBL
SYLVANIA       NOT AVBL
CLAXTON        NOT AVBL

...CSRA...CENTRAL AND FAR SOUTHEAST GEORGIA...

CITY           SKY/WX    TMP DP  RH WIND       PRES   REMARKS
THOMSON        NOT AVBL
AUGUSTA-BUSH   MOSUNNY   92  68  45 SW12G21   29.96F HX  96
6HR MIN TEMP:  72; 6HR MAX TEMP:  92; 6HR PCP: TRACE;

AUGUSTA-DANIEL MOSUNNY   92  66  42 SW12G21   29.97F HX  94
SWAINSBORO     NOT AVBL
VIDALIA        NOT AVBL
EASTMAN        NOT AVBL
HAZLEHURST     NOT AVBL
ALMA           SUNNY     88  72  58 SW10      30.03F HX  94
6HR MIN TEMP:  74; 6HR MAX TEMP:  89;

WAYCROSS       NOT AVBL
JESUP          NOT AVBL
BAXLEY         NOT AVBL
BRUNSWICK      NOT AVBL
SAINT SIMONS   MOSUNNY   90  69  50 W9        30.04F HX  94
6HR MIN TEMP:  77; 6HR MAX TEMP:  92;


$$

SCZ027-028-034-036>038-045-046-048>050-GAZ119-141-021900-
...LAKE AND SUPPLEMENTAL COASTAL OBSERVATIONS...

STATION/POSITION TIME  TEMP    WIND        PRES    WAVE   SWELL
                       AIR SEA DIR/SP/G            HT/PER HT/PER/DIR
                 (UTC) (F)     (DEG/KT/KT) (MB)    (FT/S) (FT/S/D)
UPR LAKE MARION  NOT AVBL
WINYAH BAY       NOT AVBL
LAKE MURRAY      1700   84     250/ 10/ 15 1014.2F
ACE BASIN NERRS  NOT AVBL
FORT PULASKI     1700   89 84  240/ 10/ 15 1017.2F
SAPELO ISLAND    1700   89     250/ 12     1018.0S

$$

ANZ835-935-AMZ111-154-330-350-352-354-370-450-454-472-021900-
...C-MAN AND BUOY OBSERVATIONS...

STATION/POSITION TIME  TEMP    WIND        PRES    WAVE   SWELL
                       AIR SEA DIR/SP/G            HT/PER HT/PER/DIR
                 (UTC) (F)     (DEG/KT/KT) (MB)    (FT/S) (FT/S/D)
BUOY 41004       1750   81 81  210/ 16/ 17 1016.2F   4/ 7
BUOY 41008       1750   80 80  190/ 12/ 14 1017.5F   2/ 9   2/130/ 9
FOLLY BEACH CMAN 1800   78     230/  8/ 11 1016.7R
CAPERS NEARSHORE 1708   82     260/ 12/ 16 1016.8F
FRIPP NEARSHORE  1700   82     220/ 16/ 17 1016.4F


STATION/POSITION TIME  TEMP    WIND        PRES    WAVE   SWELL
                       AIR SEA DIR/SP/G            HT/PER HT/PER/DIR
                 (UTC) (F)     (DEG/KT/KT) (MB)    (FT/S) (FT/S/D)
5E ST. MARYS GA  1721      80                N/A     2/10
FRYING PAN BUOY  1750   81 80  220/ 16/ 19 1016.1F   4/ 6   2/110/ 8
BUOY 41025       1750   82 83  220/ 19/ 23 1013.7F   4/ 7   2/200/ 7
CAPE LOOKOUT NC  1700   84     230/ 13/ 17 1014.2F
BUOY 41002       1750   77 80  220/ 17/ 21 1020.7R   6/ 7
BUOY 41010       1720   83 84  230/ 10/ 12 1020.7R
ST AUGUSTINE FL  1800   78 74  260/ 10/ 13 1019.3F


$$



USA.gov is the U.S. government's official web portal to all federal, state and local government web resources and services.